TimeCDT,TemperatureF,Dew PointF,Humidity,Sea Level PressureIn,VisibilityMPH,Wind Direction,Wind SpeedMPH,Gust SpeedMPH,PrecipitationIn,Events,Conditions,WindDirDegrees,DateUTC
12:52 AM,43.0,35.1,74,30.16,10.0,West,3.5,-,N/A,,Clear,270,2013-04-27 05:52:00
1:52 AM,42.1,35.1,76,30.16,10.0,West,6.9,-,N/A,,Clear,270,2013-04-27 06:52:00
2:52 AM,41.0,35.1,79,30.14,10.0,WNW,8.1,-,N/A,,Clear,300,2013-04-27 07:52:00
3:52 AM,39.0,34.0,82,30.12,10.0,WNW,9.2,-,N/A,,Clear,300,2013-04-27 08:52:00
4:52 AM,37.9,33.1,83,30.12,10.0,NW,8.1,-,N/A,,Clear,310,2013-04-27 09:52:00
5:52 AM,37.0,33.1,86,30.11,10.0,NW,8.1,-,N/A,,Clear,310,2013-04-27 10:52:00
6:52 AM,37.9,34.0,86,30.11,10.0,WNW,3.5,-,N/A,,Clear,290,2013-04-27 11:52:00
7:52 AM,45.0,37.9,76,30.12,10.0,South,4.6,-,N/A,,Clear,190,2013-04-27 12:52:00
8:52 AM,53.1,37.9,57,30.12,10.0,South,3.5,-,N/A,,Clear,190,2013-04-27 13:52:00
9:52 AM,59.0,37.9,46,30.10,10.0,South,6.9,-,N/A,,Clear,180,2013-04-27 14:52:00
10:52 AM,64.9,39.0,39,30.09,10.0,South,6.9,-,N/A,,Clear,180,2013-04-27 15:52:00
11:52 AM,68.0,39.0,35,30.08,10.0,South,9.2,-,N/A,,Clear,190,2013-04-27 16:52:00
12:52 PM,68.0,39.9,36,30.06,10.0,Variable,3.5,-,N/A,,Clear,0,2013-04-27 17:52:00
1:52 PM,70.0,39.0,32,30.04,10.0,WSW,3.5,17.3,N/A,,Clear,240,2013-04-27 18:52:00
2:52 PM,69.1,41.0,36,30.03,10.0,South,8.1,19.6,N/A,,Partly Cloudy,190,2013-04-27 19:52:00
3:52 PM,72.0,46.0,40,30.00,10.0,South,13.8,21.9,N/A,,Partly Cloudy,180,2013-04-27 20:52:00
4:52 PM,72.0,45.0,38,29.97,10.0,South,15.0,20.7,N/A,,Scattered Clouds,180,2013-04-27 21:52:00
5:52 PM,71.1,45.0,39,29.96,10.0,South,16.1,20.7,N/A,,Clear,170,2013-04-27 22:52:00
6:52 PM,69.1,44.1,40,29.95,10.0,South,13.8,21.9,N/A,,Clear,180,2013-04-27 23:52:00
7:52 PM,64.9,45.0,48,29.95,10.0,South,9.2,-,N/A,,Clear,190,2013-04-28 00:52:00
8:52 PM,55.9,43.0,62,29.94,10.0,South,10.4,-,N/A,,Clear,170,2013-04-28 01:52:00
9:52 PM,54.0,42.1,64,29.95,10.0,SSE,8.1,-,N/A,,Clear,160,2013-04-28 02:52:00
10:52 PM,55.0,44.1,67,29.93,10.0,SSE,11.5,-,N/A,,Clear,150,2013-04-28 03:52:00
11:52 PM,55.9,44.1,64,29.92,10.0,South,17.3,-,N/A,,Clear,180,2013-04-28 04:52:00